| time (UTC) | temp F | wind direction | speed MPH | gust MPH | rain 1hr in | rain 24hr in | rain mn in | humidity % | barometer mb |
| 20260506104802 | 50 | 346 | 7.0 | 15.0 | 0.00 | 0.04 | 0.04 | 87 | 1015.0 |
| 20260506103802 | 50 | 320 | 7.0 | 13.0 | 0.00 | 0.04 | 0.04 | 87 | 1015.0 |
| 20260506102803 | 50 | 324 | 7.0 | 14.0 | 0.00 | 0.04 | 0.04 | 85 | 1015.0 |
| 20260506102305 | 50 | 326 | 5.0 | 13.0 | 0.00 | 0.04 | 0.04 | 86 | 1015.1 |
| 20260506101802 | 50 | 326 | 6.0 | 13.0 | 0.00 | 0.04 | 0.04 | 86 | 1015.1 |
| 20260506101303 | 50 | 333 | 7.0 | 14.0 | 0.00 | 0.04 | 0.04 | 85 | 1015.1 |
| 20260506100802 | 51 | 5 | 6.0 | 13.0 | 0.00 | 0.04 | 0.04 | 84 | 1015.2 |
| 20260506100302 | 51 | 324 | 5.0 | 13.0 | 0.00 | 0.04 | 0.04 | 85 | 1015.2 |
| 20260506095802 | 51 | 328 | 6.0 | 12.0 | 0.00 | 0.04 | 0.04 | 83 | 1015.2 |
| 20260506095305 | 51 | 344 | 5.0 | 12.0 | 0.00 | 0.04 | 0.04 | 83 | 1015.2 |
| 20260506094802 | 51 | 334 | 5.0 | 12.0 | 0.00 | 0.04 | 0.04 | 85 | 1015.1 |
| 20260506094302 | 50 | 329 | 6.0 | 17.0 | 0.00 | 0.04 | 0.04 | 84 | 1015.0 |
| 20260506093803 | 51 | 324 | 9.0 | 15.0 | 0.00 | 0.04 | 0.04 | 82 | 1015.0 |
| 20260506093302 | 51 | 354 | 5.0 | 13.0 | 0.00 | 0.04 | 0.04 | 85 | 1014.9 |
| 20260506092802 | 50 | 349 | 7.0 | 12.0 | 0.00 | 0.04 | 0.04 | 84 | 1015.0 |
| 20260506092305 | 50 | 318 | 6.0 | 13.0 | 0.00 | 0.04 | 0.04 | 84 | 1015.0 |
| 20260506091302 | 50 | 340 | 8.0 | 14.0 | 0.00 | 0.04 | 0.04 | 84 | 1014.8 |
| 20260506090802 | 50 | 347 | 5.0 | 12.0 | 0.00 | 0.04 | 0.04 | 85 | 1014.8 |
| 20260506090302 | 50 | 330 | 6.0 | 14.0 | 0.00 | 0.04 | 0.04 | 84 | 1014.8 |
| 20260506085305 | 50 | 322 | 10.0 | 15.0 | 0.00 | 0.04 | 0.04 | 83 | 1014.8 |
| 20260506084802 | 50 | 341 | 6.0 | 12.0 | 0.00 | 0.04 | 0.04 | 84 | 1014.8 |
| 20260506084302 | 50 | 334 | 5.0 | 13.0 | 0.00 | 0.04 | 0.04 | 85 | 1014.8 |
| 20260506083303 | 50 | 321 | 7.0 | 13.0 | 0.00 | 0.04 | 0.04 | 85 | 1014.8 |
| 20260506082802 | 49 | 332 | 9.0 | 15.0 | 0.00 | 0.04 | 0.04 | 84 | 1014.7 |
| 20260506082304 | 49 | 337 | 7.0 | 12.0 | 0.00 | 0.04 | 0.04 | 85 | 1014.7 |
| 20260506081805 | 49 | 343 | 6.0 | 13.0 | 0.00 | 0.04 | 0.04 | 86 | 1014.7 |
| 20260506080802 | 49 | 345 | 7.0 | 16.0 | 0.00 | 0.04 | 0.04 | 86 | 1014.7 |
| 20260506080303 | 49 | 344 | 9.0 | 15.0 | 0.00 | 0.04 | 0.04 | 86 | 1014.8 |
| 20260506073302 | 48 | 332 | 8.0 | 14.0 | 0.00 | 0.04 | 0.04 | 86 | 1014.3 |
| 20260506072802 | 48 | 337 | 6.0 | 14.0 | 0.00 | 0.04 | 0.04 | 87 | 1014.4 |
| 20260506072305 | 48 | 335 | 7.0 | 14.0 | 0.00 | 0.04 | 0.04 | 87 | 1014.4 |
| 20260506071803 | 48 | 330 | 9.0 | 18.0 | 0.00 | 0.04 | 0.04 | 87 | 1014.3 |
| 20260506071302 | 48 | 329 | 6.0 | 12.0 | 0.00 | 0.04 | 0.04 | 88 | 1014.2 |
| 20260506070802 | 48 | 336 | 6.0 | 15.0 | 0.00 | 0.04 | 0.04 | 88 | 1014.3 |
| 20260506070302 | 48 | 339 | 9.0 | 16.0 | 0.00 | 0.04 | 0.04 | 88 | 1014.3 |
| 20260506062305 | 47 | 337 | 7.0 | 14.0 | 0.04 | 0.04 | 0.04 | 95 | 1013.8 |
| 20260506061802 | 46 | 345 | 9.0 | 12.0 | 0.04 | 0.04 | 0.04 | 96 | 1013.9 |
| 20260506061302 | 46 | 342 | 7.0 | 15.0 | 0.04 | 0.04 | 0.04 | 96 | 1013.8 |
| 20260506060803 | 46 | 333 | 5.0 | 14.0 | 0.04 | 0.04 | 0.04 | 96 | 1013.8 |
| 20260506060302 | 46 | 338 | 8.0 | 14.0 | 0.04 | 0.04 | 0.04 | 96 | 1013.8 |
| 20260506051302 | 47 | 313 | 6.0 | 12.0 | 0.00 | 0.00 | 0.00 | 89 | 1013.8 |
| 20260506050802 | 47 | 322 | 6.0 | 9.0 | 0.00 | 0.00 | 0.00 | 88 | 1013.8 |
| 20260506050302 | 46 | 351 | 5.0 | 8.0 | 0.00 | 0.00 | 0.00 | 87 | 1013.8 |
| 20260506044802 | 47 | 321 | 6.0 | 10.0 | 0.00 | 0.00 | 0.00 | 88 | 1013.9 |
| 20260506043304 | 47 | 328 | 3.0 | 9.0 | 0.00 | 0.00 | 0.00 | 89 | 1013.9 |
| 20260506042803 | 47 | 319 | 4.0 | 8.0 | 0.00 | 0.00 | 0.00 | 89 | 1013.8 |
| 20260506041803 | 47 | 325 | 5.0 | 12.0 | 0.00 | 0.00 | 0.00 | 89 | 1013.9 |
| 20260506040803 | 47 | 328 | 5.0 | 10.0 | 0.00 | 0.00 | 0.00 | 89 | 1013.9 |
| 20260506040302 | 47 | 325 | 5.0 | 12.0 | 0.00 | 0.00 | 0.00 | 89 | 1013.9 |
| 20260506035802 | 47 | 313 | 5.0 | 10.0 | 0.00 | 0.00 | 0.00 | 89 | 1013.9 |
| 20260506035305 | 47 | 346 | 5.0 | 10.0 | 0.00 | 0.00 | 0.00 | 89 | 1013.9 |
| 20260506034803 | 47 | 316 | 4.0 | 9.0 | 0.00 | 0.00 | 0.00 | 88 | 1013.8 |
| 20260506034303 | 47 | 328 | 7.0 | 13.0 | 0.00 | 0.00 | 0.00 | 88 | 1013.8 |
| 20260506033802 | 47 | 329 | 6.0 | 14.0 | 0.00 | 0.00 | 0.00 | 88 | 1013.9 |
| 20260506033302 | 47 | 329 | 6.0 | 14.0 | 0.00 | 0.00 | 0.00 | 88 | 1013.9 |
| 20260506032803 | 47 | 322 | 6.0 | 13.0 | 0.00 | 0.00 | 0.00 | 88 | 1013.9 |
| 20260506032305 | 47 | 328 | 6.0 | 14.0 | 0.00 | 0.00 | 0.00 | 88 | 1014.0 |
| 20260506031803 | 47 | 324 | 5.0 | 14.0 | 0.00 | 0.00 | 0.00 | 88 | 1014.0 |
| 20260506031303 | 47 | 332 | 7.0 | 14.0 | 0.00 | 0.00 | 0.00 | 88 | 1014.1 |
| 20260506030803 | 47 | 321 | 7.0 | 13.0 | 0.00 | 0.00 | 0.00 | 88 | 1014.1 |
| 20260506030302 | 48 | 332 | 6.0 | 12.0 | 0.00 | 0.00 | 0.00 | 88 | 1014.1 |
| 20260506025802 | 48 | 320 | 7.0 | 14.0 | 0.00 | 0.00 | 0.00 | 89 | 1014.1 |
| 20260506025305 | 48 | 316 | 7.0 | 12.0 | 0.00 | 0.00 | 0.00 | 89 | 1014.2 |
| 20260506024803 | 47 | 326 | 4.0 | 12.0 | 0.00 | 0.00 | 0.00 | 88 | 1014.2 |
| 20260506024302 | 47 | 329 | 5.0 | 10.0 | 0.00 | 0.00 | 0.00 | 89 | 1014.2 |
| 20260506023803 | 47 | 328 | 5.0 | 13.0 | 0.00 | 0.00 | 0.00 | 89 | 1014.2 |
| 20260506023302 | 47 | 307 | 4.0 | 9.0 | 0.00 | 0.00 | 0.00 | 89 | 1014.2 |
| 20260506022802 | 47 | 316 | 5.0 | 12.0 | 0.00 | 0.00 | 0.00 | 89 | 1014.2 |
| 20260506021803 | 47 | 314 | 4.0 | 12.0 | 0.00 | 0.00 | 0.00 | 89 | 1014.1 |
| 20260506021302 | 47 | 315 | 4.0 | 12.0 | 0.00 | 0.00 | 0.00 | 88 | 1014.2 |
| 20260506020802 | 48 | 318 | 5.0 | 9.0 | 0.00 | 0.00 | 0.00 | 88 | 1014.2 |
| 20260506020303 | 47 | 315 | 4.0 | 9.0 | 0.00 | 0.00 | 0.00 | 88 | 1014.2 |
| 20260506015802 | 47 | 318 | 3.0 | 10.0 | 0.00 | 0.00 | 0.00 | 88 | 1014.2 |
| 20260506015306 | 48 | 334 | 3.0 | 9.0 | 0.00 | 0.00 | 0.00 | 88 | 1014.2 |
| 20260506014803 | 47 | 309 | 5.0 | 10.0 | 0.00 | 0.00 | 0.00 | 88 | 1014.2 |
| 20260506014302 | 47 | 316 | 3.0 | 12.0 | 0.00 | 0.00 | 0.00 | 87 | 1014.2 |
| 20260506013803 | 47 | 304 | 5.0 | 9.0 | 0.00 | 0.00 | 0.00 | 88 | 1014.3 |
| 20260506013303 | 47 | 315 | 5.0 | 13.0 | 0.00 | 0.00 | 0.00 | 87 | 1014.3 |
| 20260506012804 | 47 | 313 | 4.0 | 9.0 | 0.00 | 0.00 | 0.00 | 87 | 1014.3 |
| 20260506012307 | 47 | 333 | 3.0 | 8.0 | 0.00 | 0.00 | 0.00 | 87 | 1014.3 |
| 20260506011302 | 47 | 287 | 5.0 | 10.0 | 0.00 | 0.00 | 0.00 | 87 | 1014.4 |
| 20260506010802 | 47 | 334 | 4.0 | 10.0 | 0.00 | 0.00 | 0.00 | 86 | 1014.5 |
| 20260506010303 | 47 | 316 | 5.0 | 13.0 | 0.00 | 0.00 | 0.00 | 85 | 1014.4 |
| 20260506005305 | 47 | 297 | 4.0 | 8.0 | 0.00 | 0.00 | 0.00 | 86 | 1014.5 |
| 20260506004802 | 47 | 315 | 6.0 | 12.0 | 0.00 | 0.00 | 0.00 | 85 | 1014.7 |
| 20260506004303 | 47 | 308 | 7.0 | 13.0 | 0.00 | 0.00 | 0.00 | 86 | 1014.7 |
| 20260506003803 | 47 | 304 | 6.0 | 13.0 | 0.00 | 0.00 | 0.00 | 86 | 1014.7 |
| 20260506003303 | 47 | 329 | 6.0 | 14.0 | 0.00 | 0.00 | 0.00 | 86 | 1014.7 |
| 20260506002803 | 47 | 302 | 5.0 | 13.0 | 0.00 | 0.00 | 0.00 | 86 | 1014.7 |
| 20260506002305 | 47 | 314 | 5.0 | 12.0 | 0.00 | 0.00 | 0.00 | 86 | 1014.7 |
| 20260506001803 | 47 | 321 | 6.0 | 12.0 | 0.00 | 0.00 | 0.00 | 86 | 1014.8 |
| 20260506001302 | 47 | 325 | 5.0 | 13.0 | 0.00 | 0.00 | 0.00 | 86 | 1014.9 |
| 20260506000803 | 47 | 317 | 6.0 | 12.0 | 0.00 | 0.00 | 0.00 | 86 | 1014.9 |
| 20260506000304 | 47 | 337 | 7.0 | 15.0 | 0.00 | 0.00 | 0.00 | 87 | 1014.9 |
| 20260505235803 | 47 | 331 | 5.0 | 13.0 | 0.00 | 0.00 | 0.00 | 86 | 1014.9 |
| 20260505234804 | 48 | 336 | 5.0 | 9.0 | 0.00 | 0.00 | 0.00 | 87 | 1015.0 |
| 20260505234302 | 48 | 308 | 5.0 | 12.0 | 0.00 | 0.00 | 0.00 | 87 | 1015.1 |
| 20260505233803 | 48 | 326 | 7.0 | 13.0 | 0.00 | 0.00 | 0.00 | 87 | 1015.1 |
| 20260505233302 | 48 | 324 | 5.0 | 12.0 | 0.00 | 0.00 | 0.00 | 87 | 1015.2 |
| 20260505232803 | 48 | 325 | 7.0 | 14.0 | 0.00 | 0.00 | 0.00 | 87 | 1015.1 |
| 20260505232305 | 48 | 324 | 6.0 | 13.0 | 0.00 | 0.00 | 0.00 | 87 | 1015.0 |
| 20260505231802 | 48 | 317 | 6.0 | 12.0 | 0.00 | 0.00 | 0.00 | 87 | 1015.0 |
| 20260505231303 | 48 | 320 | 6.0 | 14.0 | 0.00 | 0.00 | 0.00 | 87 | 1015.1 |
| 20260505230803 | 48 | 310 | 7.0 | 12.0 | 0.00 | 0.00 | 0.00 | 88 | 1015.1 |
| 20260505230302 | 48 | 324 | 7.0 | 14.0 | 0.00 | 0.00 | 0.00 | 87 | 1015.1 |
| 20260505225305 | 48 | 294 | 6.0 | 14.0 | 0.00 | 0.00 | 0.00 | 86 | 1015.1 |
| 20260505224802 | 48 | 319 | 5.0 | 16.0 | 0.00 | 0.00 | 0.00 | 86 | 1015.0 |
| 20260505224302 | 48 | 327 | 10.0 | 16.0 | 0.00 | 0.00 | 0.00 | 86 | 1015.0 |
| 20260505223803 | 48 | 329 | 7.0 | 15.0 | 0.00 | 0.00 | 0.00 | 86 | 1015.1 |
| 20260505223302 | 48 | 324 | 7.0 | 20.0 | 0.00 | 0.00 | 0.00 | 86 | 1015.1 |
| 20260505222802 | 48 | 325 | 6.0 | 13.0 | 0.00 | 0.00 | 0.00 | 86 | 1015.2 |
| 20260505222305 | 48 | 342 | 7.0 | 14.0 | 0.00 | 0.00 | 0.00 | 85 | 1015.2 |
| 20260505221803 | 48 | 325 | 5.0 | 15.0 | 0.00 | 0.00 | 0.00 | 85 | 1015.2 |
| 20260505220803 | 48 | 331 | 9.0 | 14.0 | 0.00 | 0.00 | 0.00 | 84 | 1015.3 |
| 20260505220303 | 48 | 327 | 6.0 | 12.0 | 0.00 | 0.00 | 0.00 | 84 | 1015.3 |
| 20260505215804 | 48 | 322 | 6.0 | 12.0 | 0.00 | 0.00 | 0.00 | 85 | 1015.5 |
| 20260505215305 | 48 | 321 | 6.0 | 13.0 | 0.00 | 0.00 | 0.00 | 85 | 1015.5 |
| 20260505214803 | 49 | 315 | 4.0 | 9.0 | 0.00 | 0.00 | 0.00 | 85 | 1015.6 |
| 20260505214302 | 48 | 344 | 5.0 | 12.0 | 0.00 | 0.00 | 0.00 | 84 | 1015.6 |
| 20260505213803 | 49 | 327 | 4.0 | 15.0 | 0.00 | 0.00 | 0.00 | 85 | 1015.6 |
| 20260505213304 | 49 | 327 | 6.0 | 10.0 | 0.00 | 0.00 | 0.00 | 85 | 1015.6 |
| 20260505212803 | 49 | 329 | 6.0 | 13.0 | 0.00 | 0.00 | 0.00 | 86 | 1015.5 |
| 20260505211802 | 49 | 325 | 6.0 | 12.0 | 0.00 | 0.00 | 0.00 | 86 | 1015.7 |
| 20260505210802 | 49 | 328 | 5.0 | 13.0 | 0.00 | 0.00 | 0.00 | 86 | 1015.7 |
| 20260505205305 | 49 | 345 | 6.0 | 12.0 | 0.00 | 0.00 | 0.00 | 85 | 1015.7 |
| 20260505204803 | 49 | 324 | 6.0 | 12.0 | 0.00 | 0.00 | 0.00 | 85 | 1015.7 |
| 20260505204304 | 49 | 341 | 6.0 | 12.0 | 0.00 | 0.00 | 0.00 | 86 | 1015.6 |
| 20260505203803 | 49 | 332 | 6.0 | 14.0 | 0.00 | 0.00 | 0.00 | 85 | 1015.6 |
| 20260505203302 | 49 | 341 | 5.0 | 14.0 | 0.00 | 0.00 | 0.00 | 86 | 1015.6 |
| 20260505202803 | 49 | 320 | 8.0 | 17.0 | 0.00 | 0.00 | 0.00 | 86 | 1015.6 |
| 20260505201805 | 49 | 343 | 9.0 | 16.0 | 0.00 | 0.00 | 0.00 | 87 | 1015.4 |
| 20260505201303 | 49 | 337 | 7.0 | 15.0 | 0.00 | 0.00 | 0.00 | 88 | 1015.4 |
| 20260505200803 | 50 | 331 | 7.0 | 12.0 | 0.00 | 0.00 | 0.00 | 88 | 1015.4 |
| 20260505200303 | 50 | 324 | 8.0 | 14.0 | 0.00 | 0.00 | 0.00 | 88 | 1015.4 |
| 20260505195803 | 50 | 332 | 7.0 | 15.0 | 0.00 | 0.00 | 0.00 | 89 | 1015.3 |
| 20260505195305 | 50 | 336 | 7.0 | 14.0 | 0.00 | 0.00 | 0.00 | 89 | 1015.3 |
| 20260505194303 | 50 | 316 | 6.0 | 12.0 | 0.00 | 0.00 | 0.00 | 88 | 1015.3 |
| 20260505193803 | 50 | 325 | 7.0 | 14.0 | 0.00 | 0.00 | 0.00 | 88 | 1015.2 |
| 20260505193303 | 50 | 324 | 8.0 | 17.0 | 0.00 | 0.00 | 0.00 | 88 | 1015.2 |
| 20260505192804 | 50 | 339 | 6.0 | 12.0 | 0.00 | 0.00 | 0.00 | 88 | 1015.2 |
| 20260505192305 | 50 | 318 | 9.0 | 18.0 | 0.00 | 0.00 | 0.00 | 88 | 1015.2 |
| 20260505191803 | 50 | 327 | 7.0 | 10.0 | 0.00 | 0.00 | 0.00 | 88 | 1015.2 |
| 20260505191302 | 50 | 331 | 7.0 | 12.0 | 0.00 | 0.00 | 0.00 | 88 | 1015.1 |
| 20260505190303 | 50 | 336 | 6.0 | 15.0 | 0.00 | 0.00 | 0.00 | 88 | 1014.9 |
| 20260505185305 | 50 | 349 | 5.0 | 13.0 | 0.00 | 0.00 | 0.00 | 88 | 1014.9 |
| 20260505184803 | 50 | 335 | 5.0 | 14.0 | 0.00 | 0.00 | 0.00 | 88 | 1014.7 |
| 20260505184303 | 50 | 333 | 7.0 | 16.0 | 0.00 | 0.00 | 0.00 | 88 | 1014.7 |
| 20260505183803 | 50 | 324 | 7.0 | 13.0 | 0.00 | 0.00 | 0.00 | 88 | 1014.8 |
| 20260505183303 | 51 | 339 | 7.0 | 12.0 | 0.00 | 0.00 | 0.00 | 88 | 1014.8 |
| 20260505182803 | 51 | 338 | 5.0 | 12.0 | 0.00 | 0.00 | 0.00 | 88 | 1014.9 |
| 20260505182306 | 51 | 331 | 6.0 | 13.0 | 0.00 | 0.00 | 0.00 | 87 | 1014.9 |
| 20260505181802 | 51 | 328 | 8.0 | 12.0 | 0.00 | 0.00 | 0.00 | 87 | 1014.9 |
| 20260505181303 | 51 | 334 | 7.0 | 15.0 | 0.00 | 0.00 | 0.00 | 87 | 1014.7 |
| 20260505180803 | 51 | 346 | 5.0 | 10.0 | 0.00 | 0.00 | 0.00 | 87 | 1014.8 |
| 20260505180303 | 51 | 329 | 5.0 | 14.0 | 0.00 | 0.00 | 0.00 | 87 | 1014.8 |
| 20260505175804 | 51 | 338 | 8.0 | 16.0 | 0.00 | 0.00 | 0.00 | 87 | 1014.9 |
| 20260505175306 | 51 | 329 | 6.0 | 14.0 | 0.00 | 0.00 | 0.00 | 88 | 1015.0 |
| 20260505174803 | 51 | 337 | 7.0 | 14.0 | 0.00 | 0.00 | 0.00 | 87 | 1014.9 |
| 20260505174302 | 51 | 341 | 6.0 | 14.0 | 0.00 | 0.00 | 0.00 | 87 | 1014.9 |
| 20260505173804 | 51 | 345 | 6.0 | 10.0 | 0.00 | 0.00 | 0.00 | 87 | 1014.9 |
| 20260505173302 | 51 | 335 | 8.0 | 12.0 | 0.00 | 0.00 | 0.00 | 87 | 1015.0 |
| 20260505172802 | 51 | 312 | 6.0 | 12.0 | 0.00 | 0.00 | 0.00 | 87 | 1015.0 |
| 20260505172306 | 51 | 334 | 6.0 | 13.0 | 0.00 | 0.00 | 0.00 | 87 | 1014.8 |
| 20260505171803 | 51 | 318 | 5.0 | 9.0 | 0.00 | 0.00 | 0.00 | 87 | 1014.8 |
| 20260505171303 | 51 | 343 | 6.0 | 14.0 | 0.00 | 0.00 | 0.00 | 86 | 1014.9 |
| 20260505170303 | 52 | 334 | 6.0 | 13.0 | 0.00 | 0.00 | 0.00 | 86 | 1015.0 |
| 20260505165804 | 52 | 345 | 4.0 | 12.0 | 0.00 | 0.00 | 0.00 | 86 | 1015.0 |
| 20260505165306 | 52 | 347 | 7.0 | 12.0 | 0.00 | 0.00 | 0.00 | 86 | 1015.0 |
| 20260505164803 | 52 | 320 | 8.0 | 12.0 | 0.00 | 0.00 | 0.00 | 85 | 1014.9 |
| 20260505163804 | 52 | 333 | 4.0 | 9.0 | 0.00 | 0.00 | 0.00 | 86 | 1014.7 |
| 20260505163303 | 52 | 345 | 6.0 | 10.0 | 0.00 | 0.00 | 0.00 | 85 | 1014.7 |
| 20260505162803 | 52 | 345 | 6.0 | 12.0 | 0.00 | 0.00 | 0.00 | 85 | 1014.6 |
| 20260505162306 | 52 | 342 | 4.0 | 14.0 | 0.00 | 0.00 | 0.00 | 85 | 1014.6 |
| 20260505161802 | 52 | 344 | 7.0 | 12.0 | 0.00 | 0.00 | 0.00 | 85 | 1014.4 |
| 20260505161305 | 52 | 333 | 6.0 | 12.0 | 0.00 | 0.00 | 0.00 | 86 | 1014.5 |
| 20260505160805 | 52 | 328 | 7.0 | 12.0 | 0.00 | 0.00 | 0.00 | 85 | 1014.6 |
| 20260505160303 | 52 | 315 | 5.0 | 10.0 | 0.00 | 0.00 | 0.00 | 86 | 1014.5 |
| 20260505153303 | 52 | 329 | 6.0 | 12.0 | 0.00 | 0.00 | 0.00 | 87 | 1014.7 |
| 20260505152803 | 52 | 351 | 6.0 | 12.0 | 0.00 | 0.00 | 0.00 | 86 | 1014.7 |
| 20260505152305 | 52 | 352 | 5.0 | 12.0 | 0.00 | 0.00 | 0.00 | 86 | 1014.7 |
| 20260505150803 | 53 | 351 | 6.0 | 12.0 | 0.00 | 0.00 | 0.00 | 85 | 1014.7 |
| 20260505150302 | 53 | 16 | 5.0 | 10.0 | 0.00 | 0.00 | 0.00 | 87 | 1014.7 |
| 20260505140303 | 53 | 350 | 6.0 | 10.0 | 0.00 | 0.00 | 0.00 | 87 | 1014.8 |
| 20260505124802 | 53 | 348 | 6.0 | 12.0 | 0.00 | 0.00 | 0.00 | 85 | 1014.8 |
| 20260505124303 | 53 | 340 | 6.0 | 12.0 | 0.00 | 0.00 | 0.00 | 84 | 1014.7 |
| 20260505123805 | 53 | 325 | 6.0 | 13.0 | 0.00 | 0.00 | 0.00 | 84 | 1014.6 |
| 20260505123303 | 53 | 334 | 6.0 | 13.0 | 0.00 | 0.00 | 0.00 | 84 | 1014.7 |
| 20260505122803 | 53 | 346 | 6.0 | 12.0 | 0.00 | 0.00 | 0.00 | 84 | 1014.8 |
| 20260505122306 | 53 | 336 | 6.0 | 12.0 | 0.00 | 0.00 | 0.00 | 85 | 1014.7 |
| 20260505121303 | 53 | 333 | 8.0 | 12.0 | 0.00 | 0.00 | 0.00 | 85 | 1014.6 |
| 20260505120303 | 53 | 347 | 5.0 | 13.0 | 0.00 | 0.00 | 0.00 | 84 | 1014.6 |
| 20260505115805 | 53 | 332 | 5.0 | 13.0 | 0.00 | 0.00 | 0.00 | 85 | 1014.6 |
| 20260505114804 | 53 | 14 | 6.0 | 13.0 | 0.00 | 0.00 | 0.00 | 85 | 1014.6 |
| 20260505114304 | 53 | 339 | 6.0 | 12.0 | 0.00 | 0.00 | 0.00 | 85 | 1014.7 |
| 20260505113804 | 53 | 315 | 6.0 | 12.0 | 0.00 | 0.00 | 0.00 | 85 | 1014.6 |
| 20260505113303 | 53 | 5 | 5.0 | 10.0 | 0.00 | 0.00 | 0.00 | 85 | 1014.7 |
| 20260505112803 | 53 | 293 | 6.0 | 13.0 | 0.00 | 0.00 | 0.00 | 86 | 1014.7 |
| 20260505112304 | 53 | 335 | 5.0 | 12.0 | 0.00 | 0.00 | 0.00 | 85 | 1014.7 |
| 20260505111803 | 54 | 304 | 7.0 | 12.0 | 0.00 | 0.00 | 0.00 | 84 | 1014.7 |
| 20260505110803 | 54 | 307 | 5.0 | 10.0 | 0.00 | 0.00 | 0.00 | 86 | 1014.7 |
| 20260505110303 | 53 | 325 | 5.0 | 12.0 | 0.00 | 0.00 | 0.00 | 87 | 1014.7 |